Location: *
(50.8160°S, 176.0219°W)
Time: 23:27:21
(UTC+00:00)

Cosmos 1190 Rocket - Pass Details

Date: 19 May 2026
Orbit: 753 x 775 km, 74.1° (Epoch: 11 June)

Event Time Altitude Azimuth Distance (km) Brightness Sun altitude
Exits shadow 17:50:58 13° 218° (SW) 2,131 5.8 -13.7°
Maximum altitude 17:55:20 41° 284° (WNW) 1,114 4.4 -13.0°
Drops below altitude 10° 18:00:16 10° 353° (N) 2,324 6.6 -12.3°
Sets 18:02:45 0° 360° (N) 3,245 7.5 -11.9°
